Regional Weather Roundup
Issued by NWS

Home | Current Version | Previous Version | Text Only | Print | Product List | Glossary Off
Versions: 1 2 3 4 5 6 7 8 9 10 11 12 13 14 15 16 17 18 19 20 21 22 23 24 25 26 27 28

000
ASUS45 KCYS 252310
RWRWY

WYOMING REGIONAL WEATHER ROUNDUP
NATIONAL WEATHER SERVICE CHEYENNE WY
500 PM MDT SAT OCT 25 2014

NOTE:  "FAIR" INDICATES FEW OR NO CLOUDS BELOW 12,000 FEET
WITH NO SIGNIFICANT WEATHER AND/OR OBSTRUCTIONS TO VISIBILITY.

WYZ001-260000-
YELLOWSTONE NATIONAL PARK

CITY           SKY/WX    TMP DP  RH WIND       PRES   REMARKS
LK YELLOWSTONE   N/A     58  21  24 SW9G21    30.06
W YELLOWSTONE  NOT AVBL

$$
WYZ002>013-054>058-071-098>099-260000-
NORTHERN WYOMING

CITY           SKY/WX    TMP DP  RH WIND       PRES   REMARKS
JACKSON        SUNNY     66  25  20 S12       29.98F
CODY           SUNNY     75  27  16 SE12      29.84
GREYBULL       SUNNY     79  23  12 S13       29.80F
WORLAND        SUNNY     80  22  11 S16       29.83F
SHERIDAN       SUNNY     73  37  27 W3        29.82F
BUFFALO        SUNNY     76  18  11 S14       29.90F
GILLETTE       CLEAR     70  34  26 SE16      29.91F
HULETT         FAIR      72  28  20 S8        29.95
NEWCASTLE      FAIR      70  30  23 MISG      29.97

$$
WYZ014>020-022>026-101>103-260000-
CENTRAL WYOMING

CITY           SKY/WX    TMP DP  RH WIND       PRES   REMARKS
BIG PINEY      LGT RAIN  67  22  18 SW17      30.07F
PINEDALE       PTCLDY    64  21  19 S16       30.08
DUBOIS         FAIR      64  18  16 W20G32    30.02F
LANDER         SUNNY     71  19  14 VRB3      29.94F
RIVERTON       SUNNY     71  22  15 S6        29.96F
CASPER         SUNNY     75  17  11 SW16      29.99F
DOUGLAS        SUNNY     78  18  10 SW13      29.99F

$$
WYZ021-027>030-104>119-260000-
SOUTHERN WYOMING

CITY           SKY/WX    TMP DP  RH WIND       PRES   REMARKS
EVANSTON       MOSUNNY   69  19  15 SW28G36   30.07F
KEMMERER       MOCLDY    68  19  15 SW17G24   30.09F
FORT BRIDGER   FAIR      72  24  16 SW16G24   30.11F
ROCK SPRINGS   MOSUNNY   65  29  25 S21G30    30.07F
RAWLINS        SUNNY     68  24  19 SW25G38   30.12F
SARATOGA       FAIR      68  21  17 SW14      30.17S
LARAMIE        SUNNY     69  15  12 SW14      30.15F
CHEYENNE       SUNNY     70  20  15 S14       30.12F
TORRINGTON     CLEAR     74  38  27 SE10      29.98F
PINE BLUFFS    FAIR      73  27  17 S9        30.07F

$$



USA.gov is the U.S. government's official web portal to all federal, state and local government web resources and services.